THORAD AGENA D DEB

Satellite information

Favourite Embed

Satellite Type and Status

DEBRISIN ORBIT

Key statistics

Satellite THORAD AGENA D DEB at a glance.

Uptime

20241

Days in orbit

Revolutions

≈ 14.4

Per day

Orbit

SSO

Sun Synchronous Orbit

Inclination

99.5

Latest

Satellite identification and parameters

Extended collection of information and parameters for THORAD AGENA D DEB.

Object identification

Identified? True

Debris? True

Object name: THORAD AGENA D DEB

International designator: 1970-025DJ

Object number (NORAD): 4764

Object ID (CCSDS): 4764

Country: UNITED STATES OF AMERICA (US)

Current information (Y/N): Y

RCS size: SMALL

Orbital parameters

Period: 100.076 minutes

Inclination: 99.5103 deg

SMA: 7140.232 km

Apoapsis: 781.116 km

Periapsis: 743.078 km

RAAN: 280.6403 deg

Eccentricy: 0.00266366

Argument of periapsis: 168.2388 deg

Mean anomaly: 191.9424 deg

Mean motion: 14.38912086 rev/day

Mean motion (dot): 0.00010092 rev/day2

B* drag term: 0.0032741506 1/REarth

Two-line elements (TLE)

Creation date: Sept. 6, 2025, 10:23 a.m.

Reference frame: TEME

Reference center: EARTH

Epoch: Sept. 6, 2025, 12:52 a.m. UTC

TLE line 0: 0 THORAD AGENA D DEB

TLE line 1: 1 04764U 70025DJ 25249.03652829 .00010092 00000-0 32742-2 0 9994

TLE line 2: 2 04764 99.5103 280.6403 0026637 168.2388 191.9424 14.38912086785892

Live tracking on map

Real-time ground track for satellite THORAD AGENA D DEB.

In-orbit conjunctions

A list of the most updated potential collisions computed for object THORAD AGENA D DEB.

Target Orbit TCA Probability of collision Miss distance Type
METEOR 2-8 DEB LEO 2025-08-25 08:33:15 0.0005600462 67.0 (m) DEBRIS
COSMOS 1656 LEO 2024-05-27 21:50:02 0.0005629854 555.0 (m) PAYLOAD

Associated space launch

Meteorological research and development satellite

THORAD AGENA D DEB was lifted into orbit during the mission ‘Thorad SLV-2G Agena D | Nimbus 4’, on board a Thorad SLV-2G Agena D space rocket.

The launch took place on April 8, 1970, 8:17 a.m. from Space Launch Complex 2E.

For more information about the launch, click the button.

Launch to space Thorad SLV-2G Agena D | Nimbus 4
Thorad SLV-2G Agena D | Nimbus 4

Agency: N/A

Status: Launch Successful

Launch date: April 8, 1970, 8:17 a.m. UTC

Rocket: Thorad SLV-2G Agena D

Launch pad: Space Launch Complex 2E

Location: Vandenberg SFB, CA, USA

...

Latest news about this satellite

There are no fresh news available about this satellite. Check back as we update our databases every day.


Newsletter sign-up

Weekly statistics, charts and insights to help you stay on top of the space industry.